Beaufort, NC

10:57 AM EST on November 22, 2017 (GMT -0500)
Smith

Weather History for KMRH - February, 2015

Change the Weather History Date:

Wednesday, February 4, 2015

  Actual Average Record
Temperature  
Mean Temperature 42 °F -  
Max Temperature 57 °F 56 °F 69 °F (1991)
Min Temperature 28 °F 35 °F 16 °F (1981)
Degree Days  
Heating Degree Days 22    
Moisture  
Dew Point 40 °F    
Average Humidity 79    
Maximum Humidity 100    
Minimum Humidity 53    
Precipitation  
Precipitation 0.27 in - - ()
Sea Level Pressure  
Sea Level Pressure 30.23 in    
Wind  
Wind Speed 3 mph (ESE)    
Max Wind Speed 15 mph    
Max Gust Speed -    
Visibility 9 miles    
Events Rain    
Averages and records for this station are not official NWS values.
T = Trace of Precipitation, MM = Missing Value Source: NWS Daily Summary

Daily Weather History Graph

Daily Weather History Graph

Search for Another Location

Airport or City:

Trip Planner

Search our weather history database for the weather conditions in past years. The results will help you decide how hot, cold, wet, or windy it might be!

Date:

Astronomy

Feb. 04, 2015 Rise Set
Actual Time 7:02 AM EST 5:38 PM EST
Civil Twilight 6:36 AM EST 6:05 PM EST
Nautical Twilight 6:06 AM EST 6:35 PM EST
Astronomical Twilight 5:36 AM EST 7:04 PM EST
Moon 6:33 PM EST (2/4) 7:08 AM EST (2/4)
Length of Visible Light 11h 28m
Length of Day
10h 35m
Full, 100% of the Moon is Illuminated
Feb 4
Full
Feb 11
Last Quarter
Feb 18
New
Feb 25
First Quarter
Mar 5
Full

Hourly Weather History & Observations

Time (EST) Temp. Windchill Dew Point Humidity Pressure Visibility Wind Dir Wind Speed Gust Speed Precip Events Conditions
12:58 AM 28.0 °F - 25.0 °F 88% 30.37 in 10.0 mi Calm Calm - N/A   Clear
1:58 AM 28.9 °F - 25.0 °F 85% 30.36 in 10.0 mi Calm Calm - N/A   Clear
2:58 AM 28.0 °F 24.2 °F 25.0 °F 88% 30.37 in 10.0 mi NE 3.5 mph - N/A   Clear
3:58 AM 28.9 °F - 26.1 °F 89% 30.37 in 10.0 mi Calm Calm - N/A   Clear
4:58 AM 30.9 °F - 26.1 °F 82% 30.37 in 10.0 mi Calm Calm - N/A   Clear
5:58 AM 32.0 °F 26.4 °F 26.1 °F 79% 30.37 in 10.0 mi ENE 5.8 mph - N/A   Clear
6:58 AM 32.0 °F 25.6 °F 27.0 °F 82% 30.36 in 10.0 mi East 6.9 mph - N/A   Clear
7:58 AM 36.0 °F 31.1 °F 30.0 °F 79% 30.36 in 10.0 mi East 5.8 mph - N/A   Clear
8:58 AM 44.1 °F - 32.0 °F 63% 30.37 in 10.0 mi Calm Calm - N/A   Clear
9:58 AM 48.0 °F - 33.1 °F 56% 30.37 in 10.0 mi East 3.5 mph - N/A   Clear
10:58 AM 52.0 °F - 35.1 °F 53% 30.35 in 10.0 mi Variable 4.6 mph - N/A   Clear
11:58 AM 54.0 °F - 39.9 °F 59% 30.31 in 10.0 mi Variable 4.6 mph - N/A   Clear
12:58 PM 54.0 °F - 42.1 °F 64% 30.27 in 10.0 mi East 4.6 mph - N/A   Clear
1:58 PM 55.9 °F - 45.0 °F 67% 30.22 in 10.0 mi ESE 5.8 mph - N/A   Clear
2:58 PM 57.0 °F - 46.9 °F 69% 30.20 in 10.0 mi SSE 8.1 mph - N/A   Partly Cloudy
3:58 PM 57.0 °F - 46.9 °F 69% 30.18 in 10.0 mi SSE 4.6 mph - N/A   Scattered Clouds
4:58 PM 55.9 °F - 46.9 °F 72% 30.16 in 10.0 mi Calm Calm - N/A   Clear
5:58 PM 54.0 °F - 46.9 °F 77% 30.14 in 10.0 mi Calm Calm - N/A   Partly Cloudy
6:58 PM 55.9 °F - 48.9 °F 77% 30.13 in 10.0 mi South 9.2 mph - N/A   Mostly Cloudy
7:58 PM 57.0 °F - 50.0 °F 77% 30.11 in 10.0 mi SSE 10.4 mph - N/A   Overcast
8:58 PM 55.9 °F - 52.0 °F 87% 30.11 in 10.0 mi South 15.0 mph - N/A   Overcast
9:58 PM 55.0 °F - 53.1 °F 93% 30.09 in 8.0 mi South 6.9 mph - 0.00 in Rain Light Rain
10:58 PM 55.0 °F - 55.0 °F 100% 30.06 in 8.0 mi SE 4.6 mph - 0.04 in Rain Rain
11:21 PM 55.0 °F - 55.0 °F 100% 30.04 in 6.0 mi ESE 3.5 mph - 0.05 in Rain Rain
11:42 PM 55.0 °F - 55.0 °F 100% 30.03 in 5.0 mi Calm Calm - 0.12 in Rain Rain
11:58 PM 54.0 °F - 54.0 °F 100% 30.03 in 3.0 mi Calm Calm - 0.23 in Rain Heavy Rain